Voltar ao catálogo

SHIYAN 6 02

SY-6 02

AtivoCiênciaSSO
NORAD 45859·PAYLOAD·🇨🇳 China

Lançado Jul 4, 2020 de Jiuquan Satellite Launch Center

Loading…

Próximas Passagens (próximas 24 horas)

TLE

AtualizadoSource: Space-Track

Época: Sep 14, 2026, 11:18 UTC

1 45859U 20043A   26257.47110935  .00000180  00000-0  42920-4 0  9992
2 45859  98.1868 267.8324 0127689 307.9337  51.0377 14.60985082329897

Acompanhe SHIYAN 6 02 em tempo real com AllMySat

Download on the App Store